Regional Weather Roundup
Issued by NWS

Home | Current Version | Previous Version | Graphics & Text | Print | Product List | Glossary On
Versions: 1 2 3 4 5 6 7 8 9 10 11 12 13 14 15 16 17 18 19 20 21 22 23 24 25 26 27 28 29 30 31 32 33 34 35 36 37 38 39 40 41 42 43 44 45 46 47 48 49 50
000
ASUS43 KDMX 300807
RWRIA

WEATHER ROUNDUP FOR IOWA
NATIONAL WEATHER SERVICE DES MOINES IA
300 AM CDT WED JUL 30 2014

NOTE: "FAIR" INDICATES FEW OR NO CLOUDS BELOW 12,000 FEET WITH NO
SIGNIFICANT WEATHER AND/OR OBSTRUCTIONS TO VISIBILITY.

* - THESE STATIONS ARE NOT NWS STATIONS...THUS NOT UNDER NWS
QUALITY CONTROL.  THEY ALSO DO NOT REPORT WEATHER SUCH
AS PRECIPITATION OR FOG.

IAZ001>003-012>014-020>022-031>034-043>046-300900-
   NORTHWEST IOWA

CITY           SKY/WX    TMP DP  RH WIND       PRES   REMARKS
CARROLL *      PTCLDY    54  52  94 W5        30.12F
CHEROKEE *     CLEAR     54  54 100 CALM      30.14S
DENISON *      MOCLDY    52  52 100 CALM      30.12S
LE MARS *      CLEAR     52  52 100 CALM      30.15S
ORANGE CITY *  CLEAR     59  54  82 NW3       30.14F
SHELDON *      CLEAR     52  50  93 N6        30.13S
SIOUX CITY     PTCLDY    54  53  97 CALM      30.13F FOG
SPENCER        CLEAR     52  50  93 W5        30.13S
STORM LAKE *   CLEAR     57  57 100 W8        30.14F
$$

IAZ055>058-069>071-079>083-090>094-300900-
   SOUTHWEST IOWA

CITY           SKY/WX    TMP DP  RH WIND       PRES   REMARKS
ATLANTIC *     CLEAR     52  52 100 CALM      30.12F
AUDUBON *      CLEAR     54  50  87 CALM      30.13F
CLARINDA *     CLEAR     54  54 100 CALM      30.13F
COUNCIL BLFS *   N/A     59  59 100 N5        30.12S
CRESTON *      CLEAR     59  54  82 N5        30.11F
HARLAN  *      CLEAR     52  52 100 CALM      30.16F
LAMONI         CLEAR     58  54  86 NW5       30.11F
RED OAK *      MOCLDY    54  54 100 CALM      30.12F
SHENANDOAH *   CLEAR     55  55 100 CALM      30.12F
$$

IAZ047>049-059>061-072>074-084-300900-
   CENTRAL IOWA

CITY           SKY/WX    TMP DP  RH WIND       PRES   REMARKS
AMES           CLEAR     55  53  93 CALM      30.10S
ANKENY *       CLEAR     55  55 100 CALM      30.10S
CHARITON *     CLEAR     59  55  88 W6        30.10F
DES MOINES     CLEAR     62  56  80 NW3       30.09F
GRINNELL*      CLEAR     57  55  94 W5        30.09F
KNOXVILLE *    CLEAR     57  54  88 W7        30.08S
MARSHALLTOWN   CLEAR     56  54  93 W6        30.08S
PELLA *        CLEAR     59  57  94 NW5       30.10S
PERRY *          N/A     54  54 100 NW5       30.11S
$$

IAZ004>006-015-016-023>025-035-036-300900-
   NORTH CENTRAL IOWA

CITY           SKY/WX    TMP DP  RH WIND       PRES   REMARKS
ALGONA *       CLEAR     57  54  88 W6        30.11S
CLARION *      CLEAR     52  52 100 CALM      30.10S
ESTHERVILLE    CLEAR     55  52  89 W7        30.12S
FORT DODGE *   CLEAR     55  52  88 CALM      30.12S
MASON CITY     CLEAR     55  53  93 CALM      30.10S
FOREST CITY *  CLEAR     55  54  94 CALM      30.10S
IOWA FALLS *     N/A     57  54  88 W5        30.10S
$$

IAZ007>011-017>019-026>030-037>042-050>054-066-300900-
   NORTHEAST IOWA

CITY           SKY/WX    TMP DP  RH WIND       PRES   REMARKS
CEDAR RAPIDS   CLEAR     56  50  80 W5        30.06S
CHARLES CITY * CLEAR     57  54  88 NW5       30.07F
CLINTON *      PTCLDY    57  54  88 W5        30.06S
DECORAH *      MOCLDY    59  57  94 CALM      30.04F
DUBUQUE        CLOUDY    58  56  93 CALM      30.04F
MONTICELLO *   PTCLDY    55  55 100 CALM      30.05S
OELWEIN *      CLEAR     55  54  94 CALM      30.07S
WATERLOO       CLEAR     57  55  93 CALM      30.06S
$$

IAZ064-065-067-068-078-300900-
   EAST CENTRAL IOWA

CITY           SKY/WX    TMP DP  RH WIND       PRES   REMARKS
DAVENPORT      CLEAR     56  54  93 W5        30.05F
IOWA CITY      CLEAR     61  57  87 CALM      30.08S
MT. PLEASANT * CLEAR     59  57  94 W5        30.08R
MUSCATINE *    CLEAR     63  57  82 W3        30.06F
QUAD CITIES    CLEAR     59  56  89 SW3       30.04F
$$

IAZ062-063-075>077-085>089-095>099-300900-
   SOUTHEAST IOWA

CITY           SKY/WX    TMP DP  RH WIND       PRES   REMARKS
BURLINGTON     CLEAR     61  57  87 NW6       30.06F
FAIRFIELD *    CLEAR     59  55  88 W6        30.08S
FORT MADISON * CLEAR     63  59  88 W5        30.08S
KEOKUK *       CLEAR     59  57  94 W3        30.07S
OSKALOOSA *      N/A     57  55  94 W6        30.09S
CENTERVILLE *  CLEAR     57  55  94 NW5       30.11F
OTTUMWA        PTCLDY    57  56  96 CALM      30.08S
WASHINGTON *   CLEAR     59  57  94 NW6       30.07F
$$

ABBREVIATIONS USED IN REMARKS
   TC - TEMPERATURES IN CELSIUS
  WCI - WIND CHILL INDEX
   HX - HEAT INDEX
  VSB - VISIBILITY
$$




USA.gov is the U.S. government's official web portal to all federal, state and local government web resources and services.